Toyama Airport
RJNT : now visible

Airfield :











YOU CAN JOIN US ON...

 
LOGIN :

Register | Disclaimer

   EN    FR    IT 

 









Legend :    VFR   Marginal VFR   IFR   Intensive IFR   Very Intensive IFR
Visi :
Ceiling :
>= 8 km
>= 3000ft
5 to 8 km
1000 to 3000 ft
1500m to 5 km
500 to 1000 ft
800 to 1500m
200 to 500 ft
< 800m
< 200 ft
Symbols :   Thunderstorms  Fog  Heavy snow  Heavy precipitations  Wind > 20 kt






- Airport Elevation : 95 ft
- IATA code : TOY


RJNT - Toyama

CURRENT METAR :
  • 242300Z VRB01KT 9999 -SHRA FEW020 SCT040 BKN060 21/18 Q1011

EXPIRED METARs :
  • 242200Z VRB01KT 9999 VCSH FEW005 SCT050 BKN070 19/17 Q1011

TAF TAF RJNT
Valid from the 25 at 00:00 until the 26 at 06:00 UTC


242305Z 2500/2606 32008KT 9999 FEW015 BKN030
BECMG 2509/2511 20004KT
TEMPO 2515/2521 4000 BR FEW005 BKN008
BECMG 2521/2600 32006KT
RJJJ FIR / Asia



MET'MAP, your aeronautical weather chart ! - Copyright ORBIFLY December 2007 - Disclaimer

ORBIFLY MET'MAP TEAM :

Programming & Development : Alexandra Zaïnal
Concept & original design : Baudouin d'Aumeries
Assistance for programming : Marc-Olivier Méhu
Technical & hardware support : Manuel Goepfert

Contact : metmap@orbifly.com




SOURCES & CREDITS :

   NOAA       Earth
Advisory